CW8440 Weather Reports


time (UTC)temp
F
wind
direction
speed
knots
gust
knots
rain 1hr
in
rain 24hr
in
rain mn
in
humidity
%
barometer
mb
20211017164301 56 313 3.5 8.7 0.02 0.66 0.64 76 1000.4
20211017163801 56 312 3.5 9.6 0.02 0.66 0.64 75 1000.5
20211017163300 56 305 3.5 9.6 0.01 0.65 0.63 76 1000.6
20211017162806 56 292 4.3 9.6 0.01 0.65 0.63 75 1000.6
20211017162259 56 285 3.5 9.6 0.00 0.64 0.62 75 1000.6
20211017161759 57 315 2.6 7.0 0.00 0.64 0.62 75 1000.6
20211017161300 57 320 2.6 7.0 0.00 0.64 0.62 75 1000.6
20211017160759 57 325 1.7 7.0 0.00 0.64 0.62 76 1000.6
20211017160301 57 328 1.7 7.0 0.01 0.64 0.62 75 1000.6
20211017155803 57 319 1.7 11.3 0.01 0.65 0.62 75 1000.6
20211017155257 57 320 2.6 11.3 0.02 0.65 0.62 75 1000.7
20211017154756 58 315 3.5 11.3 0.02 0.65 0.62 75 1000.7
20211017154258 58 300 2.6 11.3 0.03 0.66 0.62 75 1000.7
20211017153758 58 273 1.7 6.1 0.03 0.77 0.62 75 1000.7
20211017153257 58 248 2.6 6.1 0.03 0.84 0.62 75 1000.7
20211017152800 58 250 1.7 6.1 0.03 0.87 0.62 75 1000.9
20211017152257 58 232 1.7 6.1 0.03 0.87 0.62 75 1000.9
20211017151800 58 271 1.7 6.1 0.03 0.87 0.62 76 1000.9
20211017151257 58 246 2.6 6.1 0.03 0.87 0.62 76 1000.8
20211017150801 58 250 2.6 7.0 0.03 0.87 0.62 75 1000.9
20211017150253 58 255 3.5 7.0 0.02 0.86 0.61 75 1001.0
20211017145755 58 197 2.6 7.0 0.02 0.86 0.61 75 1001.1
20211017145300 58 235 2.6 7.0 0.01 0.85 0.60 75 1001.2
20211017144756 58 228 2.6 7.0 0.01 0.86 0.60 75 1001.2
20211017144254 58 200 2.6 7.0 0.00 0.85 0.59 75 1001.3
20211017143755 59 214 2.6 6.1 0.00 0.85 0.59 75 1001.1
20211017143254 59 219 1.7 4.3 0.00 0.86 0.59 75 1001.1
20211017142754 59 205 1.7 4.3 0.00 0.86 0.59 75 1001.2
20211017142259 59 215 1.7 4.3 0.00 0.86 0.59 75 1001.0
20211017141752 59 215 1.7 4.3 0.01 0.86 0.59 75 1001.0
20211017141254 59 215 0.9 4.3 0.02 0.86 0.59 75 1000.9
20211017140752 59 215 1.7 4.3 0.02 0.86 0.59 75 1000.8
20211017140252 59 240 1.7 3.5 0.02 0.86 0.59 75 1000.9
20211017135758 59 263 0.9 5.2 0.02 0.87 0.59 76 1000.7
20211017135252 59 265 0.9 5.2 0.03 0.87 0.59 76 1000.7
20211017134755 59 265 1.7 5.2 0.03 0.87 0.59 76 1000.6
20211017134252 58 265 1.7 5.2 0.03 0.87 0.59 76 1000.8
20211017133752 58 235 1.7 3.5 0.03 0.88 0.59 76 1000.8
20211017133253 58 246 1.7 3.5 0.03 0.89 0.59 76 1000.5
20211017132750 58 245 0.9 2.6 0.03 0.90 0.59 76 1001.1
20211017132252 58 245 0.9 2.6 0.03 0.91 0.59 76 1000.8
20211017131752 58 245 0.0 1.7 0.02 0.91 0.58 76 1000.4
20211017131250 58 245 0.9 1.7 0.01 0.91 0.57 76 1000.6
20211017130750 58 245 0.0 3.5 0.01 0.92 0.57 76 1001.0
20211017130252 58 245 0.0 3.5 0.01 0.94 0.57 76 1000.7
20211017125751 58 245 0.9 3.5 0.01 0.95 0.57 76 1001.1
20211017125251 58 245 1.7 3.5 0.00 0.96 0.56 76 1001.2
20211017124750 58 300 1.7 2.6 0.00 0.98 0.56 76 1001.4
20211017124250 58 300 0.9 2.6 0.00 0.99 0.56 76 1001.0
20211017123748 58 301 0.0 1.7 0.00 1.02 0.56 76 1000.6
20211017123248 58 301 0.0 1.7 0.00 1.04 0.56 76 1000.4
20211017122752 58 301 0.0 2.6 0.00 1.06 0.56 76 1000.1
20211017122250 58 301 0.9 2.6 0.00 1.07 0.56 76 1000.4
20211017121748 58 301 0.9 2.6 0.00 1.08 0.56 76 1000.3
20211017121247 58 301 0.0 2.6 0.00 1.10 0.56 76 1000.5
20211017120747 58 301 0.0 0.9 0.00 1.11 0.56 76 1000.4
20211017120248 58 301 0.0 0.9 0.00 1.12 0.56 76 1000.7
20211017115749 58 301 0.0 2.6 0.00 1.13 0.56 76 1000.6
20211017115248 58 301 0.0 2.6 0.01 1.13 0.56 76 1000.3
20211017114752 58 301 0.9 3.5 0.01 1.14 0.56 76 1000.5
20211017114248 58 301 0.9 3.5 0.01 1.14 0.56 76 1000.8
20211017113746 58 301 1.7 3.5 0.01 1.14 0.56 76 1000.8
20211017113248 58 301 1.7 4.3 0.01 1.14 0.56 75 1000.8
20211017112742 58 309 0.9 4.3 0.02 1.14 0.56 75 1000.6
20211017112241 58 316 0.9 2.6 0.02 1.14 0.56 75 1000.5
20211017111742 57 316 0.9 5.2 0.03 1.15 0.56 75 1000.4
20211017111243 57 316 0.9 5.2 0.03 1.15 0.56 75 1000.4
20211017110743 57 316 1.7 6.1 0.05 1.15 0.56 75 1000.3
20211017110241 57 313 1.7 7.0 0.06 1.15 0.56 75 1000.2
20211017105739 57 323 2.6 7.0 0.07 1.15 0.56 75 1000.3
20211017105239 58 307 1.7 7.8 0.07 1.15 0.55 75 1000.4
20211017104739 58 312 1.7 7.8 0.08 1.15 0.55 75 1000.3
20211017104238 58 318 3.5 11.3 0.09 1.15 0.55 75 1000.3
20211017103739 58 322 4.3 11.3 0.10 1.16 0.55 75 1000.4
20211017103238 58 313 4.3 13.0 0.11 1.16 0.55 75 1000.4
20211017102739 58 299 5.2 13.0 0.11 1.15 0.55 75 1000.7
20211017102238 58 308 5.2 13.0 0.11 1.15 0.54 75 1000.8
20211017101739 59 329 4.3 13.0 0.10 1.14 0.53 75 1000.4
20211017101239 60 300 3.5 11.3 0.11 1.15 0.53 75 1000.6
20211017100740 60 211 3.5 9.6 0.09 1.14 0.52 75 1000.9
20211017100239 60 221 3.5 8.7 0.10 1.13 0.50 75 1000.5
20211017095739 60 190 4.3 8.7 0.10 1.13 0.49 75 1000.6
20211017095238 60 190 5.2 9.6 0.12 1.12 0.48 75 1000.4
20211017094738 60 211 5.2 10.4 0.10 1.10 0.47 75 1000.5
20211017094239 60 189 6.1 10.4 0.10 1.10 0.46 75 1000.2
20211017093739 61 180 6.1 13.0 0.10 1.09 0.45 75 1000.2
20211017093239 61 209 6.1 13.0 0.09 1.08 0.45 75 1000.2
20211017092744 61 180 7.0 14.8 0.08 1.07 0.43 75 1000.3
20211017092239 61 157 7.0 14.8 0.08 1.07 0.43 75 1000.3
20211017091739 60 178 6.1 13.0 0.08 1.07 0.43 75 1000.5
20211017091239 61 160 6.1 13.0 0.08 1.06 0.42 75 1000.6
20211017090739 61 170 7.0 14.8 0.10 1.06 0.42 75 1000.6
20211017090238 61 209 7.8 20.0 0.13 1.04 0.40 75 1000.7
20211017085739 61 167 7.8 20.0 0.18 1.02 0.38 75 1000.9
20211017085237 61 167 9.6 20.9 0.21 1.00 0.37 75 1000.9
20211017084738 61 184 11.3 26.1 0.28 1.00 0.36 75 1001.0
20211017084239 61 255 10.4 26.1 0.33 1.00 0.36 75 1001.0
20211017083737 61 219 7.8 20.9 0.34 0.99 0.35 75 1000.8
20211017083238 60 200 7.8 20.0 0.34 0.99 0.35 75 1001.2
20211017082738 60 219 8.7 21.7 0.35 0.99 0.35 75 1001.4
20211017082237 60 163 10.4 21.7 0.35 0.99 0.35 75 1000.9
20211017081739 60 165 11.3 25.2 0.35 0.99 0.35 75 1001.0
20211017081236 60 120 11.3 25.2 0.34 0.98 0.34 75 1000.9
20211017080735 60 183 11.3 23.5 0.32 0.96 0.32 75 1000.8
20211017080236 60 142 11.3 23.5 0.27 0.91 0.29 74 1000.7
20211017075736 60 167 11.3 20.9 0.20 0.84 0.20 74 1000.8
20211017075237 60 132 11.3 21.7 0.15 0.79 0.15 74 1000.8
20211017074735 60 164 11.3 22.6 0.08 0.72 0.08 74 1001.0
20211017074236 61 171 11.3 23.5 0.03 0.67 0.03 74 1001.0
20211017073736 61 190 12.2 23.5 0.01 0.65 0.01 74 1000.8
20211017073236 61 165 11.3 22.6 0.01 0.65 0.01 74 1001.1
20211017072734 61 179 11.3 18.2 0.00 0.64 0.00 74 1001.1
20211017072234 61 177 11.3 19.1 0.00 0.64 0.00 74 1001.1
20211017071734 61 167 11.3 20.9 0.00 0.64 0.00 73 1001.3
20211017071234 61 162 12.2 21.7 0.00 0.64 0.00 73 1001.3
20211017070733 61 143 12.2 21.7 0.00 0.64 0.00 73 1001.4
20211017070234 61 190 13.0 23.5 0.00 0.64 0.00 74 1001.4
20211017065733 61 197 13.0 24.3 0.00 0.64 0.00 74 1001.6
20211017065240 61 175 13.0 26.9 0.00 0.64 0.00 74 1001.7
20211017064734 61 176 12.2 26.9 0.00 0.64 0.00 74 1001.6
20211017064234 61 119 12.2 26.9 0.00 0.64 0.00 74 1001.7
20211017063734 61 184 12.2 26.9 0.00 0.64 0.00 74 1001.9
20211017063234 61 154 11.3 25.2 0.00 0.64 0.00 74 1002.1
20211017062733 61 165 10.4 25.2 0.00 0.64 0.00 74 1002.2
20211017062240 61 125 10.4 20.9 0.00 0.64 0.00 74 1002.4
20211017061734 61 183 10.4 22.6 0.00 0.64 0.00 74 1002.5
20211017061233 61 152 11.3 22.6 0.00 0.64 0.00 74 1002.7
20211017060733 61 198 11.3 21.7 0.00 0.64 0.00 74 1002.6
20211017060234 61 153 10.4 21.7 0.00 0.64 0.00 74 1002.9
20211017055731 61 162 10.4 20.0 0.00 0.64 0.00 74 1003.0
20211017055232 61 156 10.4 19.1 0.00 0.64 0.00 74 1003.1
20211017054731 61 151 10.4 19.1 0.00 0.64 0.00 74 1003.3
20211017054231 61 143 11.3 20.9 0.00 0.64 0.00 74 1003.3
20211017053736 61 159 11.3 20.9 0.00 0.64 0.00 74 1003.4
20211017053231 61 162 11.3 24.3 0.00 0.64 0.00 74 1003.5
20211017052731 61 167 12.2 24.3 0.00 0.64 0.00 74 1003.6
20211017052233 60 192 12.2 24.3 0.00 0.64 0.00 74 1003.5
20211017051731 60 146 12.2 24.3 0.00 0.64 0.00 74 1003.7
20211017051232 61 158 11.3 24.3 0.00 0.64 0.00 74 1003.9
20211017050731 60 144 11.3 22.6 0.00 0.64 0.00 74 1003.9
20211017050231 60 116 10.4 20.9 0.00 0.64 0.00 74 1004.0
20211017045731 60 161 9.6 20.9 0.00 0.64 0.00 74 1004.0
20211017045229 60 194 10.4 21.7 0.00 0.64 0.00 74 1004.2
20211017044735 60 174 10.4 21.7 0.00 0.64 0.00 74 1004.1
20211017044229 60 160 11.3 23.5 0.00 0.64 0.00 74 1004.4
20211017043729 60 196 11.3 23.5 0.00 0.64 0.00 74 1004.7
20211017043231 60 176 11.3 20.0 0.00 0.64 0.00 74 1004.7
20211017042730 60 124 10.4 20.0 0.00 0.64 0.00 74 1004.6
20211017042229 60 165 9.6 20.9 0.00 0.64 0.00 74 1004.9
20211017041729 60 178 10.4 21.7 0.00 0.64 0.00 74 1004.9
20211017041231 60 157 10.4 21.7 0.00 0.64 0.00 74 1005.0
20211017040732 60 139 10.4 20.0 0.00 0.64 0.00 74 1005.2
20211017040229 60 169 10.4 20.0 0.00 0.64 0.00 74 1005.1
20211017035735 60 121 10.4 20.0 0.00 0.64 0.64 74 1005.1
20211017035229 60 163 10.4 20.9 0.00 0.64 0.64 74 1005.3
20211017034728 60 150 10.4 20.9 0.00 0.64 0.64 74 1005.4
20211017034227 60 169 9.6 20.0 0.00 0.64 0.64 74 1005.6
20211017033729 60 191 9.6 20.0 0.00 0.64 0.64 74 1005.5
20211017033227 60 141 9.6 22.6 0.00 0.64 0.64 74 1005.6
20211017032728 60 158 10.4 22.6 0.00 0.64 0.64 74 1005.7
20211017032225 61 181 10.4 22.6 0.00 0.64 0.64 74 1005.7
20211017031732 61 198 11.3 20.0 0.00 0.64 0.64 74 1005.8
20211017031225 61 134 11.3 20.9 0.00 0.64 0.64 74 1005.8
20211017030724 61 155 11.3 21.7 0.00 0.64 0.64 74 1006.0
20211017030226 61 178 12.2 21.7 0.00 0.64 0.64 74 1006.0
20211017025725 61 180 11.3 21.7 0.00 0.64 0.64 74 1006.0
20211017025225 60 182 10.4 21.7 0.00 0.64 0.64 74 1006.0
20211017024727 60 160 10.4 20.0 0.00 0.64 0.64 74 1006.2
20211017024224 60 106 10.4 20.9 0.00 0.64 0.64 74 1006.2
20211017023731 60 153 11.3 20.9 0.00 0.64 0.64 74 1006.2
20211017023226 60 186 11.3 20.0 0.00 0.64 0.64 74 1006.3
20211017022729 60 158 10.4 20.0 0.00 0.64 0.64 75 1006.4
20211017022227 60 182 10.4 20.0 0.00 0.64 0.64 75 1006.7
20211017021726 60 160 10.4 20.0 0.00 0.64 0.64 75 1006.5
20211017021227 60 162 11.3 19.1 0.00 0.64 0.64 75 1006.6
20211017020725 60 187 11.3 20.9 0.00 0.64 0.64 75 1006.6
20211017020226 60 173 10.4 20.9 0.00 0.64 0.64 75 1006.6
20211017015727 60 169 10.4 22.6 0.00 0.64 0.64 75 1006.6
20211017015226 60 184 10.4 22.6 0.00 0.64 0.64 75 1006.5
20211017014729 60 121 11.3 20.0 0.00 0.64 0.64 75 1006.5
20211017014224 60 186 11.3 20.0 0.00 0.64 0.64 75 1006.7
20211017013724 60 189 9.6 18.2 0.00 0.64 0.64 75 1006.6
20211017013227 60 178 10.4 20.9 0.00 0.64 0.64 75 1006.8
20211017012726 60 207 11.3 20.9 0.00 0.64 0.64 75 1006.8
20211017012226 60 157 11.3 20.9 0.00 0.64 0.64 75 1006.9
20211017011725 60 161 11.3 21.7 0.00 0.64 0.64 75 1006.9
20211017011234 60 148 10.4 21.7 0.00 0.64 0.64 75 1006.9
20211017010732 60 184 9.6 17.4 0.00 0.64 0.64 75 1007.1
20211017010227 60 186 8.7 16.5 0.00 0.64 0.64 75 1007.0
20211017005726 60 181 8.7 17.4 0.00 0.64 0.64 75 1007.0
20211017005226 60 170 8.7 17.4 0.00 0.64 0.64 75 1007.0
20211017004728 60 184 9.6 20.0 0.00 0.64 0.64 75 1007.1
20211017004226 60 171 10.4 20.0 0.00 0.64 0.64 75 1007.0
20211017003726 60 180 10.4 20.0 0.00 0.64 0.64 75 1007.1
20211017003226 60 190 9.6 20.0 0.00 0.64 0.64 75 1007.1
20211017002731 60 183 11.3 18.2 0.00 0.64 0.64 75 1007.1
20211017002226 60 140 10.4 18.2 0.00 0.64 0.64 75 1007.0
20211017001722 60 182 10.4 18.2 0.00 0.64 0.64 75 1007.1
20211017001225 60 189 9.6 18.2 0.00 0.64 0.64 75 1007.1
20211017000722 60 199 7.8 14.8 0.00 0.64 0.64 75 1007.2
20211017000222 60 181 7.0 14.8 0.00 0.64 0.64 75 1007.2
20211016235724 60 186 7.8 13.9 0.00 0.64 0.64 75 1007.2
20211016235224 60 182 7.0 13.9 0.00 0.64 0.64 75 1007.4
20211016234723 60 176 7.0 13.9 0.00 0.64 0.64 75 1007.5
20211016234223 60 194 7.8 13.9 0.00 0.64 0.64 75 1007.5
20211016233725 60 179 7.0 13.9 0.00 0.64 0.64 75 1007.5
20211016233224 60 156 7.8 13.9 0.00 0.64 0.64 75 1007.6
20211016232722 60 173 8.7 14.8 0.00 0.64 0.64 75 1007.5
20211016232224 60 168 7.8 14.8 0.00 0.64 0.64 75 1007.6
20211016231723 60 180 8.7 14.8 0.00 0.64 0.64 75 1007.5
20211016231224 60 185 7.8 14.8 0.00 0.64 0.64 75 1007.5
20211016230724 60 180 7.0 14.8 0.00 0.64 0.64 75 1007.4
20211016230227 60 188 7.0 14.8 0.00 0.64 0.64 75 1007.5
20211016225723 60 173 7.8 13.9 0.00 0.64 0.64 75 1007.5
20211016225223 60 189 7.8 14.8 0.00 0.64 0.64 75 1007.5
20211016224724 60 173 7.8 14.8 0.00 0.64 0.64 75 1007.6
20211016224227 60 150 7.0 14.8 0.00 0.64 0.64 75 1007.5
20211016223723 59 170 7.0 13.9 0.00 0.64 0.64 75 1007.7
20211016223222 59 188 7.0 13.9 0.01 0.64 0.64 75 1007.6
20211016222724 60 181 7.0 13.0 0.01 0.64 0.64 75 1007.7
20211016222222 60 156 7.0 14.8 0.01 0.64 0.64 75 1007.7
20211016221723 60 167 7.8 14.8 0.01 0.64 0.64 75 1007.7
20211016221222 60 165 7.8 14.8 0.01 0.64 0.64 75 1007.7
20211016220722 60 181 7.8 14.8 0.01 0.64 0.64 75 1007.7
20211016220225 60 173 7.8 14.8 0.01 0.64 0.64 75 1007.7
20211016215723 60 167 7.8 17.4 0.01 0.64 0.64 75 1007.6
20211016215224 60 162 7.8 17.4 0.01 0.64 0.64 75 1007.6
20211016214734 60 171 7.0 14.8 0.01 0.64 0.64 75 1007.6
20211016214224 60 155 7.0 14.8 0.01 0.64 0.64 75 1007.7
20211016213724 60 162 7.0 14.8 0.01 0.64 0.64 75 1007.7
20211016213222 60 181 6.1 15.6 0.00 0.63 0.64 75 1007.5
20211016212723 60 147 6.1 15.6 0.00 0.63 0.63 75 1007.6
20211016212226 60 144 7.8 16.5 0.00 0.63 0.63 75 1007.5
20211016211722 60 177 7.8 16.5 0.00 0.63 0.63 75 1007.6
20211016211227 60 162 8.7 16.5 0.00 0.63 0.63 76 1007.7
20211016210722 60 147 8.7 17.4 0.00 0.63 0.63 76 1007.9
20211016210222 60 186 8.7 17.4 0.00 0.63 0.63 76 1007.9
20211016205722 60 189 8.7 14.8 0.00 0.63 0.63 76 1007.9
20211016205227 60 186 8.7 15.6 0.00 0.63 0.63 76 1007.8
20211016204722 60 167 8.7 15.6 0.00 0.63 0.63 76 1007.9
20211016204220 60 201 7.8 18.2 0.00 0.63 0.63 76 1007.9
20211016203721 60 201 7.8 18.2 0.00 0.63 0.63 76 1008.0
20211016203222 60 188 7.8 14.8 0.00 0.63 0.63 76 1008.0
20211016202727 59 190 7.0 14.8 0.00 0.63 0.63 76 1008.0
20211016202221 60 192 7.0 13.9 0.00 0.63 0.63 76 1008.1
20211016201721 60 162 7.0 13.0 0.00 0.63 0.63 76 1008.0
20211016201224 60 169 7.0 13.0 0.00 0.63 0.63 76 1008.1
20211016200720 59 150 7.0 12.2 0.00 0.63 0.63 76 1008.0
20211016200222 59 189 7.0 12.2 0.00 0.63 0.63 76 1008.1
20211016195719 59 198 6.1 12.2 0.00 0.63 0.63 76 1008.1
20211016195220 59 189 5.2 10.4 0.00 0.63 0.63 76 1008.2
20211016194718 59 188 5.2 10.4 0.00 0.63 0.63 76 1008.2
20211016194219 59 192 5.2 10.4 0.00 0.63 0.63 76 1008.3
20211016193719 59 163 5.2 10.4 0.00 0.63 0.63 76 1008.4
20211016193218 59 190 5.2 10.4 0.00 0.63 0.63 76 1008.6
20211016192719 59 193 5.2 9.6 0.00 0.63 0.63 76 1008.6
20211016192221 59 186 4.3 9.6 0.00 0.63 0.63 76 1008.6
20211016191719 59 185 5.2 13.9 0.00 0.63 0.63 76 1008.6
20211016191218 59 204 6.1 13.9 0.00 0.63 0.63 76 1008.6
20211016190720 59 182 7.0 14.8 0.00 0.63 0.63 76 1008.6
20211016190220 59 172 7.0 14.8 0.00 0.63 0.63 76 1008.5
20211016185718 59 203 7.0 14.8 0.00 0.63 0.63 76 1008.5
20211016185224 59 162 7.0 15.6 0.00 0.63 0.63 76 1008.4
20211016184718 59 202 7.0 15.6 0.00 0.63 0.63 76 1008.6
20211016184219 59 173 7.0 14.8 0.00 0.63 0.63 76 1008.5
20211016183724 59 163 6.1 12.2 0.00 0.63 0.63 76 1008.5
20211016183218 59 184 6.1 11.3 0.01 0.63 0.63 76 1008.6
20211016182719 59 156 7.0 13.9 0.01 0.63 0.63 76 1008.7
20211016182217 59 176 7.0 13.9 0.01 0.63 0.63 76 1008.8
20211016181719 59 136 7.0 14.8 0.01 0.63 0.63 76 1008.8
20211016181216 59 175 7.0 14.8 0.01 0.63 0.63 76 1008.7
20211016180718 59 182 7.0 14.8 0.01 0.63 0.63 76 1008.7
20211016180218 59 186 7.0 12.2 0.01 0.63 0.63 76 1008.8
20211016175716 59 191 7.0 13.0 0.01 0.63 0.63 76 1008.8
20211016175216 59 165 7.8 15.6 0.01 0.63 0.63 76 1008.8
20211016174718 59 189 7.8 15.6 0.01 0.63 0.63 76 1008.8
20211016174216 59 226 8.7 16.5 0.01 0.63 0.63 76 1008.9
20211016173717 59 151 8.7 16.5 0.01 0.63 0.63 76 1008.9
20211016173213 59 153 8.7 14.8 0.00 0.62 0.62 76 1009.0
20211016172716 59 150 7.8 16.5 0.00 0.62 0.62 76 1009.0
20211016172215 59 183 7.8 16.5 0.00 0.62 0.62 76 1009.1
20211016171716 59 161 8.7 16.5 0.00 0.62 0.62 76 1009.1
20211016171212 59 157 9.6 16.5 0.00 0.62 0.62 76 1009.1
20211016170712 59 171 8.7 16.5 0.00 0.62 0.62 76 1009.2
20211016170213 59 174 8.7 15.6 0.00 0.62 0.62 76 1009.2
20211016165713 59 186 8.7 15.6 0.01 0.62 0.62 76 1009.3
20211016165212 59 205 8.7 15.6 0.01 0.62 0.62 76 1009.4